Weather History for Salem, OR

Change the Weather History Date:

Tuesday, December 10, 2013

  Actual Average Record
Temperature  
Mean Temperature 29 °F 40 °F  
Max Temperature 35 °F 47 °F 70 °F (1929)
Min Temperature 22 °F 34 °F -2 °F (1972)
Degree Days  
Heating Degree Days 36 25  
Month to date heating degree days 344 239  
Since 1 July heating degree days 1387 1356  
Cooling Degree Days 0 0  
Month to date cooling degree days 0 0  
Year to date cooling degree days 502 290  
Moisture  
Dew Point 23 °F    
Average Humidity 83    
Maximum Humidity 96    
Minimum Humidity 69    
Precipitation  
Precipitation 0.00 in 0.22 in 2.08 in (1939)
Month to date precipitation 0.87 2.37  
Year to date precipitation 23.19 35.18  
Snow  
Snow 0.00 in - - ()
Month to date snowfall 0.0  
Since 1 July snowfall 0.0  
Snow Depth 0.00 in    
Sea Level Pressure  
Sea Level Pressure 30.49 in    
Wind  
Wind Speed 2 mph (SE)    
Max Wind Speed 7 mph    
Max Gust Speed 7 mph    
Visibility 8 miles    
Events      
T = Trace of Precipitation, MM = Missing Value Source: NWS Daily Summary

Daily Weather History Graph

Daily Weather History Graph

Search for Another Location

Airport:

Trip Planner

Search our weather history database for the weather conditions in past years. The results will help you decide how hot, cold, wet, or windy it might be!

Date:

Astronomy

Dec. 10, 2013 Rise Set
Actual Time 7:39 AM PST 4:30 PM PST
Civil Twilight 7:05 AM PST 5:04 PM PST
Nautical Twilight 6:28 AM PST 5:41 PM PST
Astronomical Twilight 5:53 AM PST 6:16 PM PST
Moon 12:48 PM PST (12/10) 12:48 AM PST (12/10)
Length of Visible Light 9h 58m
Length of Day
8h 51m
Waxing Gibbous, 63% of the Moon is Illuminated
Dec 10
Waxing Gibbous
Dec 17
Full
Dec 25
Last Quarter
Jan 1
New
Jan 7
First Quarter

Hourly Weather History & Observations

Time (PST) Temp. Windchill Dew Point Humidity Pressure Visibility Wind Dir Wind Speed Gust Speed Precip Events Conditions
12:47 AM 28.0 °F 22.8 °F 23.0 °F 81% 30.54 in 10.0 mi SE 4.6 mph - N/A   Overcast
12:56 AM 28.0 °F 21.7 °F 23.0 °F 81% 30.55 in 10.0 mi SE 5.8 mph - N/A   Overcast
1:52 AM 26.6 °F - 21.2 °F 80% 30.54 in 10.0 mi Calm Calm - N/A   Mostly Cloudy
1:56 AM 27.0 °F - 21.0 °F 78% 30.55 in 10.0 mi Calm Calm - N/A   Mostly Cloudy
2:07 AM 26.1 °F 20.5 °F 21.0 °F 81% 30.54 in 10.0 mi South 4.6 mph - N/A   Mostly Cloudy
2:56 AM 26.1 °F - 21.9 °F 84% 30.56 in 10.0 mi Calm Calm - N/A   Overcast
3:56 AM 28.0 °F - 19.9 °F 72% 30.54 in 10.0 mi Calm Calm - N/A   Overcast
4:56 AM 27.0 °F - 21.9 °F 81% 30.54 in 10.0 mi Calm Calm - N/A   Overcast
5:56 AM 27.0 °F - 21.9 °F 81% 30.53 in 10.0 mi Calm Calm - N/A   Overcast
6:56 AM 27.0 °F - 21.9 °F 81% 30.53 in 10.0 mi Calm Calm - N/A   Overcast
7:56 AM 26.1 °F - 21.9 °F 84% 30.52 in 9.0 mi Calm Calm - N/A   Mostly Cloudy
8:56 AM 27.0 °F - 23.0 °F 85% 30.52 in 8.0 mi Calm Calm - N/A   Clear
9:56 AM 28.9 °F 23.9 °F 24.1 °F 82% 30.51 in 10.0 mi SE 4.6 mph - N/A   Clear
10:56 AM 30.9 °F - 24.1 °F 76% 30.52 in 10.0 mi Calm Calm - N/A   Clear
11:56 AM 32.0 °F 28.7 °F 25.0 °F 75% 30.49 in 10.0 mi ESE 3.5 mph - N/A   Clear
12:56 PM 33.1 °F - 26.1 °F 75% 30.48 in 10.0 mi Calm Calm - N/A   Partly Cloudy
1:56 PM 34.0 °F 31.0 °F 25.0 °F 70% 30.46 in 10.0 mi North 3.5 mph - N/A   Overcast
2:56 PM 35.1 °F - 26.1 °F 70% 30.45 in 10.0 mi Calm Calm - N/A   Partly Cloudy
3:56 PM 33.1 °F 30.0 °F 25.0 °F 72% 30.44 in 8.0 mi NNW 3.5 mph - N/A   Clear
4:56 PM 30.0 °F 23.2 °F 25.0 °F 82% 30.44 in 5.0 mi NNW 6.9 mph - N/A   Haze
5:56 PM 28.0 °F - 24.1 °F 85% 30.43 in 8.0 mi Calm Calm - N/A   Clear
6:56 PM 27.0 °F 23.0 °F 24.1 °F 89% 30.42 in 6.0 mi West 3.5 mph - N/A   Clear
7:56 PM 25.0 °F 20.7 °F 23.0 °F 92% 30.42 in 5.0 mi SE 3.5 mph - N/A   Clear
8:56 PM 25.0 °F - 21.9 °F 88% 30.43 in 4.0 mi Calm Calm - N/A   Clear
9:56 PM 25.0 °F 20.7 °F 21.9 °F 88% 30.43 in 4.0 mi South 3.5 mph - N/A   Clear
10:56 PM 23.0 °F - 21.0 °F 92% 30.42 in 4.0 mi Calm Calm - N/A   Clear
11:56 PM 24.1 °F - 21.0 °F 88% 30.41 in 3.0 mi Calm Calm - N/A   Clear